| time (UTC) | temp F | wind direction | speed MPH | gust MPH | rain 1hr in | rain 24hr in | rain mn in | humidity % | barometer mb |
| 20260503032727 | 54 | 26 | 1.0 | 7.0 | 0.00 | 0.00 | 0.00 | 48 | 1011.1 |
| 20260503032353 | 54 | 125 | 1.0 | 6.0 | 0.00 | 0.00 | 0.00 | 48 | 1011.0 |
| 20260503031441 | 54 | 28 | 0.0 | 8.0 | 0.00 | 0.00 | 0.00 | 49 | 1011.0 |
| 20260503031018 | 54 | 13 | 0.0 | 6.0 | 0.00 | 0.00 | 0.00 | 50 | 1011.0 |
| 20260503030930 | 54 | 51 | 1.0 | 7.0 | 0.00 | 0.00 | 0.00 | 50 | 1011.0 |
| 20260503025453 | 54 | 45 | 0.0 | 5.0 | 0.00 | 0.00 | 0.00 | 50 | 1011.0 |
| 20260503024959 | 54 | 332 | 1.0 | 9.0 | 0.00 | 0.00 | 0.00 | 50 | 1010.9 |
| 20260503024948 | 54 | 28 | 0.0 | 9.0 | 0.00 | 0.00 | 0.00 | 50 | 1011.1 |
| 20260503024827 | 54 | 313 | 0.0 | 5.0 | 0.00 | 0.00 | 0.00 | 50 | 1011.0 |
| 20260503024258 | 54 | 319 | 1.0 | 7.0 | 0.00 | 0.00 | 0.00 | 50 | 1011.0 |
| 20260503023719 | 54 | 344 | 1.0 | 11.0 | 0.00 | 0.00 | 0.00 | 50 | 1011.0 |
| 20260503023650 | 54 | 5 | 0.0 | 7.0 | 0.00 | 0.00 | 0.00 | 50 | 1011.0 |
| 20260503023002 | 54 | 123 | 0.0 | 4.0 | 0.00 | 0.00 | 0.00 | 51 | 1011.1 |
| 20260503022453 | 54 | 38 | 1.0 | 11.0 | 0.00 | 0.00 | 0.00 | 50 | 1011.0 |
| 20260503020130 | 54 | 292 | 1.0 | 9.0 | 0.00 | 0.00 | 0.00 | 50 | 1010.9 |
| 20260503015538 | 54 | 332 | 1.0 | 7.0 | 0.00 | 0.00 | 0.00 | 50 | 1011.0 |
| 20260503015014 | 55 | 216 | 0.0 | 7.0 | 0.00 | 0.00 | 0.00 | 51 | 1010.9 |
| 20260503014939 | 55 | 26 | 0.0 | 4.0 | 0.00 | 0.00 | 0.00 | 50 | 1011.0 |
| 20260503014052 | 55 | 213 | 1.0 | 7.0 | 0.00 | 0.00 | 0.00 | 52 | 1011.0 |
| 20260503013318 | 54 | 22 | 0.0 | 6.0 | 0.00 | 0.00 | 0.00 | 53 | 1011.0 |
| 20260503012808 | 55 | 119 | 0.0 | 0.0 | 0.00 | 0.00 | 0.00 | 55 | 1010.5 |
| 20260503012652 | 54 | 123 | 0.0 | 0.0 | 0.00 | 0.00 | 0.00 | 53 | 1011.0 |
| 20260503012631 | 54 | 192 | 0.0 | 6.0 | 0.00 | 0.00 | 0.00 | 52 | 1010.9 |
| 20260503011620 | 54 | 123 | 0.0 | 0.0 | 0.00 | 0.00 | 0.00 | 54 | 1010.9 |
| 20260503011014 | 54 | 122 | 0.0 | 0.0 | 0.00 | 0.00 | 0.00 | 55 | 1010.8 |
| 20260503010345 | 54 | 119 | 0.0 | 0.0 | 0.00 | 0.00 | 0.00 | 56 | 1010.7 |
| 20260503005949 | 54 | 119 | 0.0 | 0.0 | 0.00 | 0.00 | 0.00 | 55 | 1010.7 |
| 20260503004737 | 55 | 119 | 0.0 | 0.0 | 0.00 | 0.00 | 0.00 | 55 | 1010.5 |
| 20260503004047 | 55 | 119 | 0.0 | 0.0 | 0.00 | 0.00 | 0.00 | 53 | 1010.2 |
| 20260503004018 | 55 | 119 | 0.0 | 0.0 | 0.00 | 0.00 | 0.00 | 55 | 1010.3 |
| 20260503003520 | 55 | 119 | 0.0 | 0.0 | 0.00 | 0.00 | 0.00 | 54 | 1010.2 |
| 20260503002931 | 55 | 119 | 0.0 | 0.0 | 0.00 | 0.00 | 0.00 | 54 | 1010.0 |
| 20260503002401 | 55 | 119 | 0.0 | 0.0 | 0.00 | 0.00 | 0.00 | 53 | 1010.2 |
| 20260503001818 | 55 | 119 | 0.0 | 0.0 | 0.00 | 0.00 | 0.00 | 54 | 1010.2 |
| 20260503001211 | 56 | 119 | 0.0 | 0.0 | 0.00 | 0.00 | 0.00 | 53 | 1010.0 |
| 20260503000549 | 56 | 120 | 0.0 | 0.0 | 0.00 | 0.00 | 0.00 | 50 | 1009.8 |
| 20260503000537 | 56 | 119 | 0.0 | 0.0 | 0.00 | 0.00 | 0.00 | 53 | 1010.1 |
| 20260503000459 | 56 | 119 | 0.0 | 0.0 | 0.00 | 0.00 | 0.00 | 52 | 1010.2 |
| 20260502235745 | 56 | 119 | 0.0 | 0.0 | 0.00 | 0.00 | 0.00 | 51 | 1010.0 |
| 20260502235027 | 56 | 119 | 0.0 | 0.0 | 0.00 | 0.00 | 0.00 | 50 | 1009.9 |
| 20260502233647 | 56 | 120 | 0.0 | 0.0 | 0.00 | 0.00 | 0.00 | 50 | 1009.7 |
| 20260502233203 | 57 | 114 | 0.0 | 0.0 | 0.00 | 0.00 | 0.00 | 50 | 1009.7 |
| 20260502232539 | 57 | 114 | 0.0 | 0.0 | 0.00 | 0.00 | 0.00 | 50 | 1009.7 |
| 20260502232124 | 57 | 114 | 0.0 | 0.0 | 0.00 | 0.00 | 0.00 | 50 | 1009.7 |
| 20260502231357 | 57 | 114 | 0.0 | 0.0 | 0.00 | 0.00 | 0.00 | 49 | 1009.7 |
| 20260502231208 | 57 | 114 | 0.0 | 0.0 | 0.00 | 0.00 | 0.00 | 49 | 1009.8 |
| 20260502230215 | 57 | 114 | 0.0 | 0.0 | 0.00 | 0.00 | 0.00 | 48 | 1009.7 |
| 20260502225956 | 57 | 114 | 0.0 | 0.0 | 0.00 | 0.00 | 0.00 | 48 | 1009.7 |
| 20260502225316 | 58 | 114 | 0.0 | 2.0 | 0.00 | 0.00 | 0.00 | 47 | 1009.7 |
| 20260502224703 | 58 | 114 | 0.0 | 2.0 | 0.00 | 0.00 | 0.00 | 46 | 1009.8 |
| 20260502224204 | 58 | 114 | 0.0 | 4.0 | 0.00 | 0.00 | 0.00 | 46 | 1009.8 |
| 20260502223538 | 58 | 115 | 0.0 | 2.0 | 0.00 | 0.00 | 0.00 | 46 | 1009.9 |
| 20260502223323 | 58 | 115 | 0.0 | 2.0 | 0.00 | 0.00 | 0.00 | 46 | 1009.9 |
| 20260502223124 | 58 | 171 | 0.0 | 0.0 | 0.00 | 0.00 | 0.00 | 46 | 1010.0 |
| 20260502222853 | 58 | 115 | 0.0 | 4.0 | 0.00 | 0.00 | 0.00 | 47 | 1010.0 |
| 20260502222517 | 58 | 115 | 0.0 | 5.0 | 0.00 | 0.00 | 0.00 | 46 | 1010.0 |
| 20260502222420 | 58 | 153 | 0.0 | 3.0 | 0.00 | 0.00 | 0.00 | 45 | 1009.9 |
| 20260502222220 | 58 | 115 | 0.0 | 4.0 | 0.00 | 0.00 | 0.00 | 47 | 1009.9 |
| 20260502221419 | 58 | 131 | 0.0 | 5.0 | 0.00 | 0.00 | 0.00 | 47 | 1010.0 |
| 20260502220623 | 58 | 152 | 0.0 | 3.0 | 0.00 | 0.00 | 0.00 | 47 | 1010.0 |
| 20260502220059 | 58 | 153 | 0.0 | 3.0 | 0.00 | 0.00 | 0.00 | 45 | 1009.9 |
| 20260502215841 | 58 | 171 | 0.0 | 0.0 | 0.00 | 0.00 | 0.00 | 46 | 1010.0 |
| 20260502215326 | 58 | 165 | 0.0 | 2.0 | 0.00 | 0.00 | 0.00 | 47 | 1010.0 |
| 20260502214947 | 58 | 171 | 0.0 | 0.0 | 0.00 | 0.00 | 0.00 | 46 | 1010.0 |
| 20260502214153 | 58 | 171 | 0.0 | 0.0 | 0.00 | 0.00 | 0.00 | 48 | 1010.0 |
| 20260502213726 | 58 | 171 | 0.0 | 0.0 | 0.00 | 0.00 | 0.00 | 47 | 1009.8 |
| 20260502213310 | 58 | 171 | 0.0 | 1.0 | 0.00 | 0.00 | 0.00 | 47 | 1009.9 |
| 20260502212442 | 58 | 171 | 0.0 | 1.0 | 0.00 | 0.00 | 0.00 | 48 | 1009.9 |
| 20260502212002 | 58 | 171 | 0.0 | 1.0 | 0.00 | 0.00 | 0.00 | 47 | 1009.9 |
| 20260502211330 | 58 | 171 | 0.0 | 1.0 | 0.00 | 0.00 | 0.00 | 48 | 1009.8 |
| 20260502210756 | 58 | 171 | 0.0 | 1.0 | 0.00 | 0.00 | 0.00 | 47 | 1009.6 |
| 20260502210139 | 59 | 170 | 0.0 | 2.0 | 0.00 | 0.00 | 0.00 | 47 | 1009.8 |
| 20260502205823 | 59 | 171 | 0.0 | 5.0 | 0.00 | 0.00 | 0.00 | 47 | 1009.7 |
| 20260502205625 | 59 | 171 | 0.0 | 0.0 | 0.00 | 0.00 | 0.00 | 47 | 1009.8 |
| 20260502205530 | 59 | 219 | 0.0 | 2.0 | 0.00 | 0.00 | 0.00 | 48 | 1009.7 |
| 20260502205519 | 59 | 219 | 0.0 | 2.0 | 0.00 | 0.00 | 0.00 | 47 | 1009.7 |
| 20260502205342 | 59 | 171 | 0.0 | 5.0 | 0.00 | 0.00 | 0.00 | 47 | 1009.7 |
| 20260502204709 | 59 | 219 | 0.0 | 2.0 | 0.00 | 0.00 | 0.00 | 48 | 1009.7 |
| 20260502203510 | 58 | 141 | 0.0 | 3.0 | 0.00 | 0.00 | 0.00 | 47 | 1009.8 |
| 20260502202819 | 58 | 148 | 0.0 | 3.0 | 0.00 | 0.00 | 0.00 | 47 | 1009.7 |
| 20260502202247 | 58 | 148 | 0.0 | 3.0 | 0.00 | 0.00 | 0.00 | 47 | 1009.7 |
| 20260502201749 | 58 | 251 | 0.0 | 7.0 | 0.00 | 0.00 | 0.00 | 47 | 1009.7 |
| 20260502201519 | 58 | 5 | 0.0 | 7.0 | 0.00 | 0.00 | 0.00 | 47 | 1009.7 |
| 20260502200640 | 58 | 201 | 0.0 | 3.0 | 0.00 | 0.00 | 0.00 | 47 | 1009.8 |
| 20260502200620 | 58 | 203 | 0.0 | 1.0 | 0.00 | 0.00 | 0.00 | 48 | 1010.0 |
| 20260502200605 | 58 | 126 | 0.0 | 4.0 | 0.00 | 0.00 | 0.00 | 47 | 1009.7 |
| 20260502195657 | 58 | 203 | 0.0 | 1.0 | 0.00 | 0.00 | 0.00 | 48 | 1010.0 |
| 20260502195259 | 58 | 99 | 0.0 | 4.0 | 0.00 | 0.00 | 0.00 | 50 | 1009.9 |
| 20260502194424 | 58 | 98 | 0.0 | 4.0 | 0.00 | 0.00 | 0.00 | 49 | 1009.9 |
| 20260502193949 | 58 | 98 | 0.0 | 4.0 | 0.00 | 0.00 | 0.00 | 48 | 1010.1 |
| 20260502193451 | 55 | 141 | 0.0 | 4.0 | 0.00 | 0.00 | 0.00 | 46 | 1012.2 |
| 20260502193356 | 52 | 328 | 1.0 | 8.0 | 0.00 | 0.00 | 0.00 | 44 | 1012.0 |
| 20260502193320 | 58 | 192 | 0.0 | 4.0 | 0.00 | 0.00 | 0.00 | 48 | 1010.3 |
| 20260502193232 | 53 | 295 | 0.0 | 5.0 | 0.00 | 0.00 | 0.00 | 21 | 1011.1 |
| 20260502193138 | 54 | 209 | 0.0 | 0.0 | 0.00 | 0.00 | 0.00 | 100 | 1010.1 |
| 20260502193032 | 56 | 167 | 0.0 | 0.0 | 0.00 | 0.00 | 0.00 | 45 | 1010.4 |
| 20260502192940 | 58 | 178 | 1.0 | 9.0 | 0.00 | 0.00 | 0.00 | 56 | 1009.9 |
| 20260502192850 | 58 | 136 | 1.0 | 6.0 | 0.00 | 0.00 | 0.00 | 48 | 1010.3 |
| 20260502192628 | 59 | 184 | 0.0 | 1.0 | 0.00 | 0.00 | 0.00 | 46 | 1010.5 |
| 20260502192514 | 55 | 146 | 0.0 | 5.0 | 0.00 | 0.00 | 0.00 | 46 | 1012.2 |
| 20260502192222 | 59 | 115 | 0.0 | 5.0 | 0.00 | 0.00 | 0.00 | 47 | 1010.2 |
| 20260502192153 | 54 | 5 | 1.0 | 9.0 | 0.00 | 0.00 | 0.00 | 46 | 1012.0 |
| 20260502192142 | 59 | 106 | 0.0 | 5.0 | 0.00 | 0.00 | 0.00 | 48 | 1010.2 |
| 20260502190632 | 59 | 190 | 0.0 | 4.0 | 0.00 | 0.00 | 0.00 | 46 | 1010.7 |
| 20260502190336 | 53 | 223 | 1.0 | 6.0 | 0.00 | 0.00 | 0.00 | 46 | 1011.8 |
| 20260502185932 | 60 | 123 | 1.0 | 6.0 | 0.00 | 0.00 | 0.00 | 46 | 1010.7 |
| 20260502185859 | 52 | 328 | 2.0 | 13.0 | 0.00 | 0.00 | 0.00 | 44 | 1011.8 |
| 20260502185758 | 60 | 107 | 1.0 | 6.0 | 0.00 | 0.00 | 0.00 | 45 | 1010.8 |
| 20260502184932 | 60 | 246 | 1.0 | 5.0 | 0.00 | 0.00 | 0.00 | 45 | 1010.9 |
| 20260502184748 | 53 | 301 | 0.0 | 7.0 | 0.00 | 0.00 | 0.00 | 42 | 1012.1 |
| 20260502184705 | 53 | 325 | 1.0 | 7.0 | 0.00 | 0.00 | 0.00 | 35 | 1011.3 |
| 20260502184657 | 53 | 319 | 0.0 | 2.0 | 0.00 | 0.00 | 0.00 | 31 | 1011.4 |
| 20260502184317 | 53 | 295 | 0.0 | 5.0 | 0.00 | 0.00 | 0.00 | 21 | 1011.1 |
| 20260502184247 | 60 | 102 | 1.0 | 9.0 | 0.00 | 0.00 | 0.00 | 45 | 1010.9 |
| 20260502184205 | 53 | 142 | 0.0 | 6.0 | 0.00 | 0.00 | 0.00 | 1 | 1010.5 |
| 20260502183806 | 55 | 209 | 0.0 | 1.0 | 0.00 | 0.00 | 0.00 | 23 | 1010.7 |
| 20260502183721 | 60 | 107 | 1.0 | 7.0 | 0.00 | 0.00 | 0.00 | 44 | 1011.0 |
| 20260502183456 | 57 | 146 | 1.0 | 11.0 | 0.00 | 0.00 | 0.00 | 47 | 1010.7 |
| 20260502183435 | 57 | 183 | 1.0 | 8.0 | 0.00 | 0.00 | 0.00 | 56 | 1010.1 |
| 20260502183200 | 60 | 128 | 1.0 | 8.0 | 0.00 | 0.00 | 0.00 | 45 | 1011.1 |
| 20260502182753 | 55 | 315 | 1.0 | 4.0 | 0.00 | 0.00 | 0.00 | 47 | 1012.0 |
| 20260502182721 | 55 | 355 | 1.0 | 6.0 | 0.00 | 0.00 | 0.00 | 47 | 1012.0 |
| 20260502182710 | 55 | 327 | 1.0 | 5.0 | 0.00 | 0.00 | 0.00 | 47 | 1012.0 |
| 20260502182631 | 60 | 129 | 1.0 | 4.0 | 0.00 | 0.00 | 0.00 | 45 | 1011.2 |
| 20260502182225 | 55 | 144 | 1.0 | 5.0 | 0.00 | 0.00 | 0.00 | 47 | 1012.6 |
| 20260502182145 | 54 | 168 | 0.0 | 5.0 | 0.00 | 0.00 | 0.00 | 47 | 1012.9 |
| 20260502182133 | 54 | 346 | 0.0 | 5.0 | 0.00 | 0.00 | 0.00 | 47 | 1012.8 |
| 20260502182109 | 60 | 101 | 1.0 | 9.0 | 0.00 | 0.00 | 0.00 | 45 | 1011.3 |
| 20260502182047 | 54 | 134 | 0.0 | 7.0 | 0.00 | 0.00 | 0.00 | 46 | 1012.7 |
| 20260502181836 | 55 | 117 | 1.0 | 7.0 | 0.00 | 0.00 | 0.00 | 46 | 1012.1 |
| 20260502181800 | 54 | 219 | 1.0 | 6.0 | 0.00 | 0.00 | 0.00 | 46 | 1012.0 |
| 20260502181734 | 54 | 66 | 1.0 | 6.0 | 0.00 | 0.00 | 0.00 | 46 | 1012.0 |
| 20260502181640 | 60 | 129 | 1.0 | 8.0 | 0.00 | 0.00 | 0.00 | 45 | 1011.4 |
| 20260502181424 | 54 | 331 | 1.0 | 11.0 | 0.00 | 0.00 | 0.00 | 46 | 1012.0 |
| 20260502181408 | 53 | 162 | 1.0 | 8.0 | 0.00 | 0.00 | 0.00 | 46 | 1011.8 |
| 20260502181333 | 53 | 323 | 1.0 | 9.0 | 0.00 | 0.00 | 0.00 | 46 | 1011.9 |
| 20260502181302 | 53 | 183 | 1.0 | 9.0 | 0.00 | 0.00 | 0.00 | 46 | 1012.0 |
| 20260502181105 | 53 | 288 | 1.0 | 9.0 | 0.00 | 0.00 | 0.00 | 46 | 1011.9 |
| 20260502181046 | 53 | 310 | 1.0 | 9.0 | 0.00 | 0.00 | 0.00 | 46 | 1012.0 |
| 20260502181033 | 53 | 113 | 1.0 | 7.0 | 0.00 | 0.00 | 0.00 | 45 | 1012.0 |
| 20260502181015 | 59 | 122 | 1.0 | 8.0 | 0.00 | 0.00 | 0.00 | 44 | 1011.5 |
| 20260502180927 | 52 | 153 | 1.0 | 9.0 | 0.00 | 0.00 | 0.00 | 46 | 1012.0 |
| 20260502180850 | 52 | 0 | 1.0 | 12.0 | 0.00 | 0.00 | 0.00 | 46 | 1011.9 |
| 20260502180744 | 52 | 151 | 1.0 | 12.0 | 0.00 | 0.00 | 0.00 | 45 | 1011.9 |
| 20260502180537 | 59 | 73 | 1.0 | 7.0 | 0.00 | 0.00 | 0.00 | 44 | 1011.5 |
| 20260502180314 | 58 | 107 | 1.0 | 10.0 | 0.00 | 0.00 | 0.00 | 43 | 1011.6 |
| 20260502180220 | 58 | 128 | 1.0 | 10.0 | 0.00 | 0.00 | 0.00 | 44 | 1011.6 |
| 20260502170504 | 55 | 355 | 1.0 | 6.0 | 0.00 | 0.00 | 0.00 | 47 | 1012.0 |
| 20260502164215 | 56 | 101 | 0.0 | 5.0 | 0.00 | 0.00 | 0.00 | 46 | 1012.3 |
| 20260502163928 | 53 | 41 | 1.0 | 7.0 | 0.00 | 0.00 | 0.00 | 100 | 1010.4 |
| 20260502163854 | 53 | 329 | 0.0 | 7.0 | 0.00 | 0.00 | 0.00 | 100 | 1010.2 |
| 20260502163826 | 53 | 209 | 0.0 | 0.0 | 0.00 | 0.00 | 0.00 | 100 | 1010.2 |
| 20260502163719 | 56 | 149 | 0.0 | 6.0 | 0.00 | 0.00 | 0.00 | 47 | 1012.3 |
| 20260502163044 | 56 | 151 | 0.0 | 6.0 | 0.00 | 0.00 | 0.00 | 47 | 1012.1 |
| 20260502161848 | 55 | 348 | 0.0 | 4.0 | 0.00 | 0.00 | 0.00 | 47 | 1012.2 |
| 20260502161128 | 55 | 289 | 0.0 | 8.0 | 0.00 | 0.00 | 0.00 | 46 | 1012.4 |
| 20260502161109 | 53 | 209 | 0.0 | 0.0 | 0.00 | 0.00 | 0.00 | 100 | 1010.1 |
| 20260502160657 | 55 | 138 | 0.0 | 8.0 | 0.00 | 0.00 | 0.00 | 47 | 1012.3 |
| 20260502151805 | 54 | 346 | 0.0 | 5.0 | 0.00 | 0.00 | 0.00 | 47 | 1012.8 |
| 20260502150943 | 54 | 338 | 1.0 | 4.0 | 0.00 | 0.00 | 0.00 | 47 | 1012.7 |
| 20260502150238 | 55 | 170 | 1.0 | 5.0 | 0.00 | 0.00 | 0.00 | 46 | 1012.3 |
| 20260502150139 | 55 | 0 | 1.0 | 7.0 | 0.00 | 0.00 | 0.00 | 46 | 1012.2 |
| 20260502130455 | 53 | 127 | 0.0 | 6.0 | 0.00 | 0.00 | 0.00 | 45 | 1012.2 |
| 20260502123607 | 52 | 207 | 1.0 | 12.0 | 0.00 | 0.00 | 0.00 | 46 | 1011.8 |
| 20260502123552 | 55 | 209 | 0.0 | 6.0 | 0.00 | 0.00 | 0.00 | 32 | 1010.6 |
| 20260502123244 | 55 | 150 | 0.0 | 3.0 | 0.00 | 0.00 | 0.00 | 38 | 1010.8 |
| 20260502123205 | 55 | 144 | 0.0 | 3.0 | 0.00 | 0.00 | 0.00 | 39 | 1010.6 |
| 20260502123018 | 52 | 117 | 0.0 | 7.0 | 0.00 | 0.00 | 0.00 | 46 | 1011.9 |
| 20260502122738 | 56 | 167 | 0.0 | 0.0 | 0.00 | 0.00 | 0.00 | 44 | 1010.5 |
| 20260502122604 | 52 | 74 | 1.0 | 12.0 | 0.00 | 0.00 | 0.00 | 45 | 1011.8 |
| 20260502121959 | 56 | 167 | 0.0 | 7.0 | 0.00 | 0.00 | 0.00 | 46 | 1010.4 |
| 20260502121942 | 56 | 167 | 0.0 | 0.0 | 0.00 | 0.00 | 0.00 | 46 | 1010.4 |
| 20260502121904 | 56 | 210 | 1.0 | 9.0 | 0.00 | 0.00 | 0.00 | 47 | 1010.3 |
| 20260502121845 | 56 | 167 | 1.0 | 8.0 | 0.00 | 0.00 | 0.00 | 47 | 1010.4 |
| 20260502121827 | 52 | 345 | 1.0 | 12.0 | 0.00 | 0.00 | 0.00 | 45 | 1011.9 |
| 20260502121800 | 56 | 163 | 0.0 | 6.0 | 0.00 | 0.00 | 0.00 | 47 | 1010.6 |
| 20260502121458 | 56 | 222 | 0.0 | 11.0 | 0.00 | 0.00 | 0.00 | 46 | 1010.7 |
| 20260502120836 | 52 | 332 | 1.0 | 12.0 | 0.00 | 0.00 | 0.00 | 45 | 1011.9 |
| 20260502114950 | 52 | 182 | 1.0 | 10.0 | 0.00 | 0.00 | 0.00 | 44 | 1012.0 |
| 20260502114843 | 52 | 355 | 1.0 | 13.0 | 0.00 | 0.00 | 0.00 | 43 | 1012.1 |
| 20260502114353 | 53 | 46 | 1.0 | 13.0 | 0.00 | 0.00 | 0.00 | 43 | 1012.0 |
| 20260502112648 | 53 | 269 | 0.0 | 7.0 | 0.00 | 0.00 | 0.00 | 42 | 1011.9 |
| 20260502112149 | 53 | 322 | 1.0 | 7.0 | 0.00 | 0.00 | 0.00 | 42 | 1011.9 |
| 20260502111617 | 53 | 9 | 1.0 | 8.0 | 0.00 | 0.00 | 0.00 | 41 | 1011.7 |
| 20260502111151 | 53 | 221 | 1.0 | 8.0 | 0.00 | 0.00 | 0.00 | 41 | 1011.6 |
| 20260502110200 | 53 | 5 | 0.0 | 6.0 | 0.00 | 0.00 | 0.00 | 40 | 1011.7 |
| 20260502105446 | 53 | 303 | 0.0 | 5.0 | 0.00 | 0.00 | 0.00 | 40 | 1011.6 |
| 20260502103928 | 53 | 279 | 1.0 | 1.0 | 0.00 | 0.00 | 0.00 | 38 | 1011.4 |
| 20260502103823 | 53 | 96 | 1.0 | 8.0 | 0.00 | 0.00 | 0.00 | 37 | 1011.4 |
| 20260502101344 | 53 | 318 | 0.0 | 5.0 | 0.00 | 0.00 | 0.00 | 29 | 1011.3 |
| 20260502100612 | 53 | 307 | 0.0 | 4.0 | 0.00 | 0.00 | 0.00 | 25 | 1011.1 |
| 20260502071337 | 53 | 209 | 0.0 | 0.0 | 0.00 | 0.00 | 0.00 | 100 | 1010.0 |
| 20260502070737 | 53 | 209 | 0.0 | 0.0 | 0.00 | 0.00 | 0.00 | 100 | 1010.0 |
| 20260502065640 | 53 | 209 | 0.0 | 0.0 | 0.00 | 0.00 | 0.00 | 100 | 1010.0 |
| 20260502065235 | 53 | 209 | 0.0 | 0.0 | 0.00 | 0.00 | 0.00 | 100 | 1010.0 |
| 20260502064813 | 53 | 209 | 0.0 | 0.0 | 0.00 | 0.00 | 0.00 | 100 | 1010.0 |
| 20260502064100 | 54 | 209 | 0.0 | 0.0 | 0.00 | 0.00 | 0.00 | 100 | 1010.1 |
| 20260502063912 | 54 | 209 | 0.0 | 0.0 | 0.00 | 0.00 | 0.00 | 100 | 1010.2 |
| 20260502062058 | 58 | 203 | 1.0 | 8.0 | 0.00 | 0.00 | 0.00 | 57 | 1009.5 |
| 20260502062035 | 58 | 154 | 1.0 | 8.0 | 0.00 | 0.00 | 0.00 | 56 | 1009.7 |
| 20260502062014 | 59 | 148 | 1.0 | 10.0 | 0.00 | 0.00 | 0.00 | 56 | 1009.7 |
| 20260502061924 | 59 | 177 | 1.0 | 10.0 | 0.00 | 0.00 | 0.00 | 57 | 1009.7 |
| 20260502061839 | 54 | 209 | 0.0 | 0.0 | 0.00 | 0.00 | 0.00 | 100 | 1010.5 |
| 20260502055637 | 59 | 177 | 2.0 | 9.0 | 0.00 | 0.00 | 0.00 | 57 | 1009.8 |
| 20260502055610 | 54 | 209 | 0.0 | 0.0 | 0.00 | 0.00 | 0.00 | 100 | 1010.9 |
| 20260502055505 | 54 | 209 | 0.0 | 0.0 | 0.00 | 0.00 | 0.00 | 100 | 1011.0 |
| 20260502055416 | 54 | 209 | 0.0 | 0.0 | 0.00 | 0.00 | 0.00 | 100 | 1011.0 |
| 20260502055315 | 54 | 209 | 0.0 | 0.0 | 0.00 | 0.00 | 0.00 | 100 | 1011.0 |
| 20260502054644 | 54 | 209 | 0.0 | 0.0 | 0.00 | 0.00 | 0.00 | 100 | 1011.0 |
| 20260502052615 | 55 | 209 | 0.0 | 0.0 | 0.00 | 0.00 | 0.00 | 100 | 1010.7 |
| 20260502052152 | 55 | 209 | 0.0 | 0.0 | 0.00 | 0.00 | 0.00 | 100 | 1010.7 |
| 20260502051421 | 55 | 209 | 0.0 | 0.0 | 0.00 | 0.00 | 0.00 | 100 | 1010.7 |
| 20260502045956 | 55 | 209 | 0.0 | 0.0 | 0.00 | 0.00 | 0.00 | 100 | 1010.6 |
| 20260502044455 | 55 | 209 | 0.0 | 0.0 | 0.00 | 0.00 | 0.00 | 7 | 1010.6 |
| 20260502043920 | 55 | 209 | 0.0 | 0.0 | 0.00 | 0.00 | 0.00 | 10 | 1010.7 |
| 20260502043828 | 55 | 209 | 0.0 | 0.0 | 0.00 | 0.00 | 0.00 | 13 | 1010.7 |
| 20260502043219 | 55 | 209 | 0.0 | 0.0 | 0.00 | 0.00 | 0.00 | 17 | 1010.6 |
| 20260502041501 | 55 | 209 | 0.0 | 4.0 | 0.00 | 0.00 | 0.00 | 26 | 1010.7 |
| 20260502041402 | 55 | 209 | 0.0 | 4.0 | 0.00 | 0.00 | 0.00 | 29 | 1010.6 |
| 20260502041308 | 55 | 209 | 0.0 | 6.0 | 0.00 | 0.00 | 0.00 | 32 | 1010.6 |
| 20260502040511 | 55 | 182 | 0.0 | 6.0 | 0.00 | 0.00 | 0.00 | 35 | 1010.6 |
| 20260502034451 | 55 | 144 | 0.0 | 7.0 | 0.00 | 0.00 | 0.00 | 41 | 1010.7 |
| 20260502034336 | 55 | 143 | 0.0 | 7.0 | 0.00 | 0.00 | 0.00 | 42 | 1010.6 |
| 20260502033746 | 55 | 169 | 0.0 | 4.0 | 0.00 | 0.00 | 0.00 | 43 | 1010.7 |
| 20260502033101 | 56 | 167 | 0.0 | 0.0 | 0.00 | 0.00 | 0.00 | 44 | 1010.5 |